Location: Czestochowa
(50.8000°N, 19.1167°E)
Time: 10:19:25
(UTC+02:00)

ISS - Visible Passes

Search period start: 26 September 2018 00:00
Search period end: 06 October 2018 00:00
Orbit: 403 x 408 km, 51.6° (Epoch: 26 September)

Date Brightness Start Highest point End Pass type
(mag) Time Alt. Az. Time Alt. Az. Time Alt. Az.
26 Sep -3.9 20:12:26 10° WSW 20:15:43 67° SSE 20:16:23 50° E visible
26 Sep -0.5 21:48:57 10° W 21:49:04 11° W 21:49:04 11° W visible
27 Sep -3.4 19:20:41 10° SW 19:23:52 47° SSE 19:26:35 13° E visible
27 Sep -2.5 20:57:01 10° W 20:59:16 40° W 20:59:16 40° W visible
28 Sep -3.9 20:05:04 10° W 20:08:22 87° NNW 20:09:23 42° ENE visible
28 Sep -0.6 21:41:40 10° W 21:42:03 13° W 21:42:03 13° W visible
29 Sep -3.8 19:13:09 10° WSW 19:16:27 75° SSE 19:19:26 12° ENE visible
29 Sep -2.7 20:49:42 10° W 20:52:07 44° WNW 20:52:07 44° WNW visible
30 Sep -3.8 19:57:44 10° W 20:01:02 75° N 20:02:08 39° ENE visible
30 Sep -0.6 21:34:18 10° WNW 21:34:48 14° WNW 21:34:48 14° WNW visible
01 Oct -3.8 19:05:44 10° W 19:09:03 82° N 19:12:07 12° E visible
01 Oct -2.8 20:42:20 10° WNW 20:44:47 47° WNW 20:44:47 47° WNW visible
02 Oct -3.8 19:50:21 10° W 19:53:39 77° N 19:54:46 38° E visible
02 Oct -0.7 21:26:54 10° W 21:27:26 14° W 21:27:26 14° W visible
03 Oct -3.7 18:58:19 10° W 19:01:38 74° N 19:04:44 11° E visible
03 Oct -2.9 20:34:53 10° WNW 20:37:25 47° W 20:37:25 47° W visible
04 Oct -3.9 19:42:53 10° WNW 19:46:12 88° S 19:47:23 37° ESE visible
04 Oct -0.6 21:19:34 10° W 21:20:03 13° W 21:20:03 13° W visible
05 Oct -3.8 18:50:52 10° W 18:54:11 80° N 18:57:23 11° E visible
05 Oct -2.6 20:27:26 10° W 20:30:03 38° SW 20:30:03 38° SW visible
